Location: Del Amo
(33.8464°N, 118.2104°W)
Time: 02:02:04
(UTC+00:00)

SR - Pass Details

Date: 27 September 2024
Orbit: 578 x 855 km, 66.7° (Epoch: 02 October)

Event Time Altitude Azimuth Distance (km) Brightness Sun altitude
Rises 17:47:33 0° 214° (SW) 2,815 ? 44.9°
Reaches altitude 10° 17:49:49 10° 218° (SW) 1,899 ? 45.2°
Maximum altitude 17:53:59 58° 298° (WNW) 676 ? 45.8°
Drops below altitude 10° 17:58:09 10° 18° (NNE) 1,899 ? 46.4°
Sets 18:00:26 0° 22° (NNE) 2,816 ? 46.7°
